Location: 3 Angels Observatory
(30.5437°N, 88.5068°W)
Time: 10:14:13
(UTC-05:00)

Amateur Radio Satellites - All Passes

Search period start: 25 October 2014 09:44
Search period end: 26 October 2014 09:44
Location: 3 Angels Observatory, 30.5437°N, 88.5068°W

Satellite Date Start Highest point End Downlink Frequencies (MHz)
Time Altitude Azimuth
PANSAT 25 Oct 10:02:09 10:05:54 56° 187° (S) 10:09:39 not established
RS-15 25 Oct 10:07:29 10:15:19 22° 257° (WSW) 10:23:25 29.354 - 29.394 USB, Beacon 29.352 USB
ZACube-1 25 Oct 10:09:57 10:12:07 14° 94° (E) 10:14:15 437.345 MHz
UKube-1 25 Oct 10:12:32 10:16:45 46° 100° (E) 10:20:55 145.840 MHz, 145.915 MHz
HO-68 25 Oct 10:20:24 10:27:30 66° 288° (WNW) 10:34:35 435.675 MHz FM
FUNcube-1 25 Oct 10:52:53 10:56:59 50° 100° (E) 11:01:00 145.950 - 145.970 MHz USB
Oscar 11 25 Oct 10:53:37 10:57:49 55° 284° (WNW) 11:02:01 145.825 FM, Beacon 2401.500 USB
ISS 25 Oct 11:18:25 11:21:18 28° 129° (SE) 11:24:13 145.800 FM
Oscar 10/S400 25 Oct 11:26:25 11:55:02 36° 154° (SSE) 12:11:37 145.825 - 145.975 CW/USB, Beacon 145.810 USB
PANSAT 25 Oct 11:42:34 11:45:46 25° 199° (SSW) 11:48:59 not established
ZACube-1 25 Oct 11:44:47 11:48:35 33° 287° (WNW) 11:52:18 437.345 MHz
UKube-1 25 Oct 11:50:53 11:52:28 12° 293° (WNW) 11:54:02 145.840 MHz, 145.915 MHz
SO-50 25 Oct 11:51:24 11:55:08 27° 111° (ESE) 11:58:58 436.795 FM
KITSAT 1 25 Oct 11:51:44 11:59:46 74° 113° (ESE) 12:07:49 435.175 FM
ISS 25 Oct 12:55:29 12:57:59 19° 322° (NW) 13:00:30 145.800 FM
Oscar 19 25 Oct 13:09:59 13:14:38 35° 72° (ENE) 13:19:16 437.125 CW, 437.150 USB
UOSAT-12 25 Oct 13:12:51 13:15:38 16° 108° (ESE) 13:18:26 437.025 FM, 437.400 FM
Sapphire 25 Oct 13:15:28 13:20:42 46° 62° (ENE) 13:25:52 437.095 MHz 1200 baud AX-25 AFSK
JAS-1B 25 Oct 13:27:31 13:33:20 46° 73° (ENE) 13:38:44 435.800 - 435.900 CW/SSB
AO-27 25 Oct 13:30:11 13:34:05 22° 68° (ENE) 13:37:59 436.795 MHz FM
SO-50 25 Oct 13:32:02 13:35:36 23° 305° (NW) 13:39:16 436.795 FM
PCSat 25 Oct 13:37:47 13:43:14 84° 66° (ENE) 13:48:38 145.825 MHz
AO-Echo 25 Oct 13:45:44 13:50:11 38° 72° (ENE) 13:54:48 ?
KITSAT 1 25 Oct 13:49:59 13:55:51 22° 310° (NW) 14:01:44 435.175 FM
Oscar 16 25 Oct 13:55:15 14:00:24 75° 258° (WSW) 14:05:34 437.025 USB, Beacon 2401.1428
Uribyol 2 25 Oct 14:16:00 14:21:10 70° 75° (ENE) 14:26:23 436.500 FM
ITAMSAT 1 25 Oct 14:22:12 14:27:23 76° 76° (ENE) 14:32:36 435.822 SSB
Gurwin Techsat 1B 25 Oct 14:46:06 14:51:20 65° 75° (ENE) 14:56:36 435.225 FM
Oscar 19 25 Oct 14:50:11 14:53:57 21° 264° (W) 14:57:45 437.125 CW, 437.150 USB
UOSAT-12 25 Oct 14:51:03 14:55:23 40° 302° (WNW) 14:59:48 437.025 FM, 437.400 FM
TMSAT-1 25 Oct 14:56:55 15:02:06 60° 75° (ENE) 15:07:19 436.925 FM
Sapphire 25 Oct 15:00:12 15:03:40 17° 255° (WSW) 15:07:07 437.095 MHz 1200 baud AX-25 AFSK
AO-27 25 Oct 15:08:36 15:13:18 35° 261° (W) 15:18:03 436.795 MHz FM
AO-7 25 Oct 15:16:30 15:23:23 31° 63° (ENE) 15:30:16 29.400 - 29.500 MHz
JAS-1B 25 Oct 15:20:18 15:24:08 17° 263° (W) 15:27:47 435.800 - 435.900 CW/SSB
AO-Echo 25 Oct 15:25:59 15:29:04 17° 266° (W) 15:32:13 ?
Uosat F 25 Oct 15:32:55 15:35:59 16° 67° (ENE) 15:39:02 435.120 FM
JAS-2 25 Oct 16:10:34 16:11:28 10° 59° (ENE) 16:12:23 435.800 - 435.900 CW/SSB, 435.910 FM
AO-40 25 Oct 16:12:21 23:09:00 53° 183° (S) 05:23:38 Beacon 2401.320
Saudisat 1A 25 Oct 16:20:10 16:24:05 30° 57° (ENE) 16:27:58 436.775 MHz
Gurwin Techsat 1B 25 Oct 16:30:10 16:31:37 11° 267° (W) 16:33:04 435.225 FM
TMSAT-1 25 Oct 16:40:15 16:42:18 12° 267° (W) 16:44:22 436.925 FM
AO-7 25 Oct 17:07:49 17:15:44 50° 258° (WSW) 17:23:42 29.400 - 29.500 MHz
Uosat F 25 Oct 17:09:35 17:14:21 44° 260° (W) 17:19:08 435.120 FM
OPAL 25 Oct 17:21:35 17:25:33 24° 99° (E) 17:29:29 ?
Hamsat 25 Oct 17:48:42 17:52:49 55° 76° (ENE) 17:56:55 145.90 MHz
JAS-2 25 Oct 17:49:33 17:55:16 89° 76° (ENE) 18:01:49 435.800 - 435.900 CW/SSB, 435.910 FM
Saudisat 1A 25 Oct 18:00:14 18:03:24 19° 250° (WSW) 18:06:33 436.775 MHz
SO-67 25 Oct 18:29:14 18:31:00 14° 71° (ENE) 18:32:47 435.3500 MHz FM
OPAL 25 Oct 19:00:08 19:04:20 28° 291° (WNW) 19:08:31 ?
STRAND 1 25 Oct 19:06:53 19:11:31 34° 98° (E) 19:16:07 ?
ISS 25 Oct 19:27:43 19:30:42 30° 41° (NE) 19:33:41 145.800 FM
KITSAT 1 25 Oct 19:53:45 19:57:46 14° 44° (NE) 20:01:45 435.175 FM
SO-67 25 Oct 20:01:02 20:03:44 22° 263° (W) 20:06:26 435.3500 MHz FM
RS-15 25 Oct 20:03:04 20:08:54 16° 101° (E) 20:14:37 29.354 - 29.394 USB, Beacon 29.352 USB
HO-68 25 Oct 20:42:23 20:49:16 54° 71° (ENE) 20:56:12 435.675 MHz FM
STRAND 1 25 Oct 20:46:34 20:50:26 22° 291° (WNW) 20:54:18 ?
UKube-1 25 Oct 21:03:20 21:06:31 20° 70° (ENE) 21:09:42 145.840 MHz, 145.915 MHz
ISS 25 Oct 21:04:59 21:07:11 17° 234° (SW) 21:09:23 145.800 FM
Oscar 11 25 Oct 21:42:47 21:47:00 54° 75° (ENE) 21:51:13 145.825 FM, Beacon 2401.500 USB
FUNcube-1 25 Oct 21:44:04 21:47:36 22° 71° (ENE) 21:51:06 145.950 - 145.970 MHz USB
KITSAT 1 25 Oct 21:46:23 21:54:29 75° 64° (ENE) 22:02:31 435.175 FM
SO-50 25 Oct 22:07:38 22:12:29 69° 62° (ENE) 22:17:21 436.795 FM
RS-15 25 Oct 22:08:36 22:19:43 90° 116° (ESE) 22:30:41 29.354 - 29.394 USB, Beacon 29.352 USB
HO-68 25 Oct 22:31:52 22:37:10 22° 264° (W) 22:42:31 435.675 MHz FM
ZACube-1 25 Oct 22:34:34 22:39:11 89° 260° (W) 22:43:45 437.345 MHz
UKube-1 25 Oct 22:38:52 22:42:29 26° 262° (W) 22:46:08 145.840 MHz, 145.915 MHz
MaSat-1 25 Oct 23:09:55 23:14:09 65° 110° (ESE) 23:18:02 437.345 MHz
FUNcube-1 25 Oct 23:19:56 23:23:46 26° 263° (W) 23:27:35 145.950 - 145.970 MHz USB
UOSAT-12 25 Oct 23:25:56 23:30:17 36° 58° (ENE) 23:34:32 437.025 FM, 437.400 FM
KITSAT 1 25 Oct 23:44:09 23:48:58 17° 258° (WSW) 23:53:48 435.175 FM
RS-15 26 Oct 00:25:34 00:33:32 22° 318° (NW) 00:41:32 29.354 - 29.394 USB, Beacon 29.352 USB
Oscar 10/S400 26 Oct 00:30:36 01:46:21 33° 241° (WSW) 05:52:21 145.825 - 145.975 CW/USB, Beacon 145.810 USB
UOSAT-12 26 Oct 01:06:59 01:10:05 18° 251° (WSW) 01:13:08 437.025 FM, 437.400 FM
JAS-1B 26 Oct 01:16:28 01:21:45 21° 98° (E) 01:27:37 435.800 - 435.900 CW/SSB
Oscar 19 26 Oct 01:27:57 01:31:36 20° 96° (E) 01:35:14 437.125 CW, 437.150 USB
AO-27 26 Oct 01:50:28 01:52:15 12° 93° (E) 01:54:02 436.795 MHz FM
AO-Echo 26 Oct 01:59:02 02:03:05 22° 95° (E) 02:07:04 ?
Sapphire 26 Oct 02:11:33 02:13:53 13° 103° (ESE) 02:16:13 437.095 MHz 1200 baud AX-25 AFSK
Oscar 16 26 Oct 02:12:44 02:17:49 63° 101° (ESE) 02:22:52 437.025 USB, Beacon 2401.1428
PCSat 26 Oct 02:31:46 02:36:02 24° 106° (ESE) 02:40:20 145.825 MHz
Uribyol 2 26 Oct 02:34:47 02:39:39 40° 99° (E) 02:44:28 436.500 FM
ITAMSAT 1 26 Oct 02:41:04 02:46:02 43° 100° (E) 02:50:57 435.822 SSB
JAS-1B 26 Oct 03:05:22 03:12:17 63° 286° (WNW) 03:20:35 435.800 - 435.900 CW/SSB
Oscar 19 26 Oct 03:06:19 03:10:57 36° 288° (WNW) 03:15:35 437.125 CW, 437.150 USB
Gurwin Techsat 1B 26 Oct 03:08:17 03:13:17 41° 99° (E) 03:18:16 435.225 FM
TMSAT-1 26 Oct 03:18:45 03:23:40 38° 99° (E) 03:28:32 436.925 FM
AO-27 26 Oct 03:26:54 03:32:03 61° 286° (WNW) 03:37:10 436.795 MHz FM
AO-7 26 Oct 03:27:50 03:30:00 11° 93° (E) 03:32:09 29.400 - 29.500 MHz
AO-Echo 26 Oct 03:37:01 03:41:49 36° 288° (WNW) 03:46:35 ?
Sapphire 26 Oct 03:51:23 03:56:41 60° 296° (WNW) 04:02:03 437.095 MHz 1200 baud AX-25 AFSK
Oscar 16 26 Oct 03:54:44 03:56:34 12° 295° (WNW) 03:58:24 437.025 USB, Beacon 2401.1428
PCSat 26 Oct 04:14:21 04:19:12 34° 300° (WNW) 04:24:07 145.825 MHz
Uribyol 2 26 Oct 04:15:11 04:18:46 19° 292° (WNW) 04:22:19 436.500 FM
ITAMSAT 1 26 Oct 04:21:43 04:25:07 18° 293° (WNW) 04:28:30 435.822 SSB
OPAL 26 Oct 04:31:12 04:35:19 25° 68° (ENE) 04:39:24 ?
Gurwin Techsat 1B 26 Oct 04:49:14 04:52:53 19° 292° (WNW) 04:56:31 435.225 FM
TMSAT-1 26 Oct 04:59:25 05:03:15 21° 292° (WNW) 05:07:05 436.925 FM
JAS-2 26 Oct 05:05:41 05:11:19 21° 93° (E) 05:16:47 435.800 - 435.900 CW/SSB, 435.910 FM
RS-15 26 Oct 05:07:02 05:12:49 15° 34° (NE) 05:18:41 29.354 - 29.394 USB, Beacon 29.352 USB
AO-7 26 Oct 05:15:13 05:23:35 82° 106° (ESE) 05:31:56 29.400 - 29.500 MHz
Uosat F 26 Oct 05:22:40 05:27:44 89° 285° (WNW) 05:32:46 435.120 FM
Hamsat 26 Oct 05:41:12 05:43:38 15° 95° (E) 05:46:04 145.90 MHz
OPAL 26 Oct 06:09:29 06:13:59 30° 260° (W) 06:18:29 ?
PANSAT 26 Oct 06:17:02 06:20:27 31° 163° (SSE) 06:23:52 not established
STRAND 1 26 Oct 06:17:37 06:21:54 28° 70° (ENE) 06:26:13 ?
Saudisat 1A 26 Oct 06:21:19 06:25:05 29° 112° (ESE) 06:28:52 436.775 MHz
JAS-2 26 Oct 06:48:52 06:56:38 66° 286° (WNW) 07:04:12 435.800 - 435.900 CW/SSB, 435.910 FM
AO-7 26 Oct 07:10:14 07:15:22 18° 302° (WNW) 07:20:30 29.400 - 29.500 MHz
Hamsat 26 Oct 07:15:51 07:19:35 31° 286° (WNW) 07:23:19 145.90 MHz
RS-15 26 Oct 07:16:52 07:28:00 61° 59° (ENE) 07:39:34 29.354 - 29.394 USB, Beacon 29.352 USB
SO-67 26 Oct 07:29:04 07:32:12 32° 98° (E) 07:35:19 435.3500 MHz FM
PANSAT 26 Oct 07:56:35 08:00:22 61° 175° (S) 08:04:09 not established
STRAND 1 26 Oct 07:56:44 08:00:57 26° 263° (W) 08:05:13 ?
Saudisat 1A 26 Oct 08:01:16 08:04:36 21° 305° (NW) 08:07:57 436.775 MHz
HO-68 26 Oct 08:19:54 08:22:22 12° 93° (E) 08:24:48 435.675 MHz FM
JAS-2 26 Oct 08:39:53 08:40:11 10° 302° (WNW) 08:40:29 435.800 - 435.900 CW/SSB, 435.910 FM
MaSat-1 26 Oct 09:01:53 09:03:41 18° 63° (ENE) 09:05:26 437.345 MHz
AO-40 26 Oct 09:27:43 09:35:22 15° 211° (SSW) 09:39:38 Beacon 2401.320
PANSAT 26 Oct 09:36:39 09:40:24 55° 188° (S) 09:44:08 not established
Oscar 11 26 Oct 09:37:21 09:39:53 15° 95° (E) 09:42:25 145.825 FM, Beacon 2401.500 USB
